Location: Broletto
(44.6000°N, 10.5833°E)
Time: 07:35:28
(UTC+00:00)

CZ-2C R/B - Pass Details

Date: 18 April 2021
Orbit: 639 x 705 km, 98.3° (Epoch: 07 May)

Event Time Altitude Azimuth Distance (km) Brightness Sun altitude
Rises 19:42:27 0° 19° (NNE) 2,966 7.3 -16.2°
Reaches altitude 10° 19:44:46 10° 26° (NNE) 2,046 6.3 -16.5°
Maximum altitude 19:49:02 45° 99° (E) 869 3.9 -17.2°
Enters shadow 19:50:39 31° 150° (SSE) 1,115 4.4 -17.4°
